GFSSW_prec_pwat_150.txt.gz
Precipitable_Water
0.92 0.97 1.00 1.02 0.96 0.91 0.89 0.87 0.83 0.79 0.77 0.73 0.68 0.66 0.62 0.59 0.59 0.56 0.38 0.46 0.43 0.43 0.40 0.32 0.35 0.40 0.39 0.32 0.31 0.31 0.21 0.17 0.19 0.23 0.31 0.39 0.42 0.50 0.55 0.50 0.56 0.65 0.56 0.87 1.11
0.89 0.96 0.99 1.04 1.03 0.94 0.93 0.90 0.84 0.80 0.77 0.74 0.71 0.67 0.64 0.62 0.53 0.43 0.45 0.45 0.46 0.45 0.32 0.27 0.25 0.34 0.33 0.30 0.29 0.25 0.20 0.19 0.23 0.29 0.32 0.37 0.41 0.45 0.43 0.45 0.52 0.58 0.72 0.96 1.01
0.92 0.96 0.96 0.99 0.99 0.94 0.94 0.93 0.86 0.82 0.80 0.77 0.75 0.70 0.65 0.67 0.45 0.39 0.57 0.58 0.53 0.47 0.38 0.37 0.36 0.31 0.30 0.32 0.29 0.26 0.21 0.25 0.25 0.28 0.34 0.35 0.36 0.42 0.42 0.42 0.49 0.49 0.64 0.80 0.84
0.94 0.99 1.01 1.03 1.00 0.94 0.92 0.93 0.90 0.86 0.84 0.79 0.76 0.70 0.65 0.63 0.31 0.54 0.65 0.60 0.53 0.45 0.40 0.37 0.36 0.32 0.26 0.26 0.32 0.27 0.30 0.28 0.28 0.31 0.32 0.33 0.38 0.39 0.43 0.45 0.51 0.61 0.65 0.70 0.70
1.03 1.06 1.06 1.06 1.03 0.98 0.98 0.99 0.96 0.93 0.88 0.83 0.80 0.74 0.66 0.48 0.52 0.65 0.62 0.59 0.48 0.41 0.34 0.36 0.34 0.32 0.28 0.29 0.30 0.29 0.31 0.34 0.33 0.32 0.33 0.34 0.33 0.35 0.37 0.44 0.53 0.59 0.61 0.60 0.62
1.08 1.11 1.11 1.07 1.04 1.02 0.98 0.96 0.96 0.94 0.90 0.87 0.85 0.80 0.63 0.47 0.72 0.71 0.68 0.64 0.56 0.41 0.38 0.40 0.37 0.41 0.34 0.33 0.31 0.32 0.33 0.32 0.34 0.32 0.31 0.29 0.30 0.32 0.34 0.43 0.44 0.48 0.49 0.53 0.54
1.16 1.16 1.13 1.08 1.06 1.02 0.98 0.96 0.98 0.99 0.95 0.93 0.88 0.82 0.67 0.64 0.79 0.76 0.74 0.67 0.61 0.47 0.38 0.43 0.44 0.40 0.38 0.30 0.35 0.33 0.27 0.30 0.31 0.31 0.29 0.31 0.27 0.26 0.32 0.40 0.38 0.38 0.43 0.49 0.51
1.24 1.21 1.15 1.10 1.09 1.08 1.05 1.06 1.07 1.04 0.99 0.98 0.96 0.82 0.62 0.79 0.84 0.79 0.77 0.71 0.66 0.59 0.51 0.48 0.50 0.47 0.41 0.39 0.32 0.25 0.25 0.20 0.23 0.26 0.29 0.28 0.20 0.27 0.32 0.32 0.32 0.37 0.42 0.45 0.50
1.33 1.31 1.24 1.20 1.17 1.14 1.14 1.10 1.09 1.08 1.02 1.00 0.88 0.79 0.65 0.82 0.72 0.72 0.71 0.63 0.60 0.59 0.61 0.56 0.51 0.43 0.45 0.35 0.26 0.26 0.18 0.20 0.20 0.23 0.24 0.25 0.20 0.24 0.30 0.32 0.31 0.37 0.43 0.48 0.52
1.34 1.31 1.29 1.27 1.24 1.21 1.15 1.09 1.07 1.02 1.00 0.99 0.91 0.72 0.75 0.68 0.69 0.72 0.72 0.63 0.55 0.56 0.52 0.48 0.45 0.39 0.39 0.33 0.24 0.23 0.21 0.21 0.21 0.23 0.26 0.25 0.23 0.27 0.30 0.35 0.36 0.40 0.45 0.49 0.52
1.24 1.25 1.25 1.22 1.19 1.14 1.05 0.91 0.84 0.78 0.81 0.74 0.74 0.72 0.66 0.72 0.76 0.66 0.71 0.65 0.62 0.56 0.45 0.47 0.37 0.32 0.35 0.34 0.30 0.28 0.25 0.24 0.27 0.28 0.26 0.23 0.25 0.28 0.32 0.35 0.38 0.41 0.46 0.50 0.53
1.23 1.22 1.20 1.21 1.20 1.17 1.01 0.81 0.84 0.88 0.67 0.78 0.76 0.73 0.81 0.82 0.65 0.69 0.73 0.63 0.57 0.47 0.50 0.44 0.36 0.42 0.40 0.36 0.33 0.31 0.28 0.26 0.29 0.31 0.30 0.28 0.26 0.30 0.32 0.34 0.37 0.40 0.45 0.50 0.54
1.20 1.21 1.20 1.21 1.17 1.06 0.99 0.88 1.04 0.95 0.66 0.65 0.72 0.67 0.71 0.73 0.63 0.66 0.67 0.62 0.55 0.49 0.48 0.41 0.41 0.45 0.42 0.38 0.34 0.33 0.30 0.30 0.27 0.31 0.33 0.30 0.25 0.28 0.32 0.33 0.36 0.41 0.45 0.51 0.52
1.14 1.13 1.14 1.14 1.01 0.98 0.89 1.07 1.04 0.91 0.50 0.48 0.54 0.56 0.61 0.65 0.55 0.70 0.75 0.61 0.53 0.46 0.49 0.44 0.46 0.42 0.40 0.37 0.38 0.30 0.36 0.34 0.34 0.31 0.25 0.33 0.20 0.26 0.31 0.33 0.34 0.36 0.42 0.45 0.49
1.11 1.07 1.06 1.04 0.93 0.86 0.96 1.05 1.00 0.78 0.33 0.48 0.46 0.56 0.52 0.51 0.47 0.48 0.68 0.64 0.52 0.50 0.50 0.42 0.42 0.42 0.40 0.40 0.43 0.33 0.37 0.35 0.35 0.33 0.32 0.31 0.28 0.26 0.32 0.31 0.33 0.35 0.38 0.43 0.48
1.00 0.99 1.00 0.94 0.91 0.91 1.00 0.97 0.85 0.51 0.33 0.47 0.47 0.44 0.43 0.44 0.42 0.46 0.50 0.59 0.56 0.52 0.50 0.47 0.50 0.43 0.42 0.43 0.43 0.43 0.36 0.34 0.35 0.33 0.25 0.29 0.30 0.22 0.28 0.30 0.32 0.36 0.40 0.45 0.50
0.91 0.88 0.86 0.83 0.68 0.92 0.93 0.73 0.43 0.33 0.48 0.42 0.42 0.44 0.41 0.39 0.39 0.44 0.38 0.41 0.40 0.36 0.37 0.43 0.42 0.45 0.46 0.38 0.41 0.39 0.34 0.27 0.24 0.24 0.21 0.30 0.29 0.25 0.30 0.35 0.36 0.36 0.39 0.45 0.50
0.94 0.87 0.86 0.77 0.78 0.84 0.76 0.51 0.30 0.34 0.39 0.44 0.44 0.44 0.37 0.38 0.38 0.40 0.38 0.33 0.38 0.35 0.31 0.28 0.25 0.32 0.36 0.36 0.34 0.34 0.33 0.27 0.22 0.22 0.23 0.30 0.23 0.26 0.41 0.44 0.44 0.43 0.44 0.47 0.51
0.96 0.87 0.79 0.79 0.79 0.75 0.58 0.35 0.31 0.36 0.38 0.38 0.40 0.35 0.37 0.40 0.39 0.38 0.39 0.37 0.37 0.35 0.29 0.27 0.26 0.32 0.33 0.33 0.32 0.30 0.27 0.34 0.29 0.30 0.25 0.25 0.29 0.37 0.44 0.42 0.44 0.45 0.47 0.48 0.52
0.84 0.76 0.73 0.86 0.82 0.67 0.46 0.34 0.36 0.43 0.38 0.36 0.31 0.35 0.31 0.33 0.36 0.38 0.37 0.41 0.39 0.39 0.37 0.32 0.25 0.32 0.32 0.36 0.35 0.30 0.33 0.25 0.29 0.22 0.21 0.23 0.25 0.25 0.36 0.39 0.42 0.43 0.45 0.49 0.56
0.77 0.59 0.71 0.87 0.78 0.56 0.32 0.32 0.36 0.43 0.42 0.35 0.32 0.32 0.32 0.30 0.32 0.33 0.37 0.42 0.44 0.44 0.46 0.38 0.33 0.31 0.36 0.33 0.31 0.32 0.29 0.29 0.29 0.27 0.21 0.20 0.23 0.33 0.37 0.40 0.41 0.44 0.48 0.50 0.52
0.65 0.42 0.71 0.78 0.44 0.46 0.36 0.36 0.39 0.38 0.42 0.39 0.36 0.34 0.34 0.34 0.31 0.30 0.34 0.39 0.48 0.49 0.42 0.47 0.39 0.29 0.33 0.41 0.43 0.39 0.35 0.35 0.27 0.25 0.29 0.26 0.25 0.43 0.46 0.49 0.50 0.50 0.49 0.51 0.54
0.51 0.49 0.72 0.70 0.35 0.36 0.41 0.39 0.39 0.34 0.34 0.36 0.36 0.37 0.36 0.32 0.32 0.34 0.34 0.43 0.45 0.45 0.46 0.47 0.41 0.31 0.31 0.36 0.42 0.39 0.39 0.38 0.36 0.34 0.29 0.26 0.27 0.44 0.43 0.43 0.48 0.44 0.45 0.54 0.56
0.48 0.37 0.47 0.54 0.50 0.41 0.37 0.35 0.35 0.41 0.35 0.33 0.33 0.36 0.35 0.32 0.37 0.33 0.34 0.38 0.43 0.43 0.45 0.41 0.39 0.36 0.29 0.33 0.37 0.35 0.38 0.40 0.39 0.30 0.30 0.30 0.31 0.38 0.39 0.39 0.42 0.42 0.41 0.40 0.47
0.41 0.36 0.45 0.35 0.38 0.41 0.41 0.39 0.35 0.32 0.39 0.38 0.31 0.29 0.29 0.28 0.30 0.29 0.34 0.37 0.40 0.40 0.42 0.41 0.29 0.33 0.34 0.33 0.35 0.36 0.34 0.34 0.34 0.36 0.29 0.33 0.35 0.38 0.42 0.43 0.44 0.43 0.41 0.39 0.41
0.35 0.35 0.43 0.37 0.43 0.40 0.40 0.36 0.34 0.34 0.35 0.32 0.30 0.30 0.31 0.25 0.24 0.23 0.27 0.29 0.29 0.34 0.34 0.39 0.31 0.33 0.30 0.33 0.33 0.31 0.32 0.33 0.34 0.33 0.32 0.32 0.30 0.37 0.34 0.35 0.35 0.34 0.37 0.39 0.40
0.36 0.44 0.40 0.36 0.35 0.34 0.33 0.36 0.35 0.39 0.39 0.36 0.32 0.30 0.28 0.28 0.32 0.29 0.29 0.29 0.29 0.28 0.29 0.30 0.28 0.26 0.21 0.27 0.29 0.25 0.26 0.28 0.27 0.28 0.30 0.27 0.29 0.34 0.31 0.30 0.28 0.31 0.32 0.37 0.39

GFSSW_prec_pwat_153.txt.gz
Precipitable_Water
0.88 0.91 0.93 0.94 0.93 0.89 0.89 0.89 0.86 0.82 0.77 0.73 0.69 0.65 0.61 0.60 0.60 0.54 0.32 0.36 0.37 0.41 0.38 0.29 0.29 0.35 0.39 0.32 0.31 0.31 0.22 0.19 0.20 0.21 0.27 0.37 0.40 0.49 0.53 0.57 0.65 0.73 0.67 0.86 1.10
0.84 0.88 0.93 0.91 0.94 0.92 0.88 0.87 0.87 0.85 0.83 0.78 0.75 0.70 0.64 0.63 0.53 0.41 0.47 0.54 0.54 0.48 0.34 0.28 0.27 0.29 0.31 0.30 0.29 0.26 0.21 0.20 0.25 0.27 0.30 0.33 0.41 0.44 0.47 0.54 0.58 0.67 0.74 0.93 1.04
0.85 0.88 0.93 0.92 0.94 0.95 0.90 0.88 0.85 0.83 0.82 0.78 0.75 0.71 0.66 0.66 0.43 0.40 0.59 0.60 0.55 0.47 0.40 0.37 0.36 0.30 0.25 0.31 0.30 0.29 0.23 0.25 0.25 0.28 0.32 0.33 0.36 0.43 0.43 0.44 0.52 0.50 0.66 0.86 0.93
0.83 0.87 0.94 0.95 0.96 0.97 0.91 0.88 0.87 0.87 0.83 0.81 0.79 0.74 0.73 0.64 0.33 0.55 0.64 0.60 0.56 0.48 0.39 0.35 0.33 0.28 0.27 0.26 0.34 0.30 0.31 0.30 0.30 0.31 0.31 0.32 0.35 0.36 0.41 0.43 0.51 0.62 0.71 0.79 0.84
0.86 0.90 0.97 1.00 0.99 0.96 0.94 0.88 0.88 0.89 0.91 0.88 0.83 0.78 0.70 0.56 0.55 0.67 0.63 0.65 0.63 0.54 0.38 0.34 0.32 0.31 0.28 0.32 0.32 0.29 0.30 0.34 0.35 0.34 0.34 0.35 0.33 0.33 0.37 0.45 0.53 0.61 0.68 0.74 0.78
0.97 1.00 1.05 1.03 0.97 0.97 0.96 0.93 0.89 0.90 0.93 0.92 0.87 0.85 0.66 0.52 0.79 0.75 0.71 0.70 0.66 0.55 0.45 0.38 0.35 0.39 0.34 0.33 0.33 0.35 0.34 0.33 0.34 0.33 0.33 0.31 0.32 0.34 0.36 0.44 0.47 0.53 0.57 0.65 0.67
1.10 1.12 1.14 1.13 1.07 1.00 0.98 0.96 0.95 0.94 0.97 0.95 0.90 0.85 0.71 0.65 0.85 0.80 0.79 0.72 0.69 0.60 0.48 0.43 0.41 0.37 0.37 0.32 0.38 0.37 0.30 0.31 0.29 0.30 0.30 0.31 0.27 0.28 0.34 0.41 0.41 0.46 0.52 0.58 0.62
1.24 1.22 1.22 1.17 1.08 1.01 1.00 0.99 1.01 1.04 1.04 1.01 0.99 0.87 0.68 0.89 0.85 0.80 0.77 0.73 0.72 0.68 0.59 0.53 0.48 0.45 0.44 0.46 0.39 0.31 0.28 0.22 0.24 0.25 0.28 0.29 0.22 0.27 0.33 0.35 0.36 0.40 0.45 0.49 0.53
1.34 1.27 1.25 1.17 1.18 1.17 1.16 1.16 1.14 1.10 1.09 1.04 0.91 0.81 0.69 0.91 0.74 0.71 0.69 0.62 0.62 0.61 0.60 0.60 0.57 0.49 0.49 0.40 0.34 0.33 0.24 0.24 0.23 0.26 0.25 0.25 0.21 0.26 0.29 0.30 0.30 0.36 0.39 0.44 0.49
1.40 1.36 1.32 1.29 1.28 1.27 1.22 1.18 1.16 1.10 1.06 1.04 0.93 0.73 0.77 0.75 0.78 0.71 0.73 0.68 0.57 0.57 0.55 0.52 0.48 0.42 0.41 0.37 0.28 0.28 0.26 0.26 0.24 0.27 0.27 0.25 0.24 0.27 0.31 0.33 0.32 0.38 0.42 0.44 0.49
1.32 1.28 1.26 1.29 1.28 1.19 1.09 0.99 0.87 0.82 0.81 0.78 0.77 0.72 0.71 0.74 0.75 0.70 0.74 0.64 0.61 0.57 0.48 0.50 0.42 0.39 0.41 0.38 0.33 0.31 0.27 0.25 0.28 0.31 0.28 0.25 0.25 0.26 0.30 0.33 0.35 0.37 0.42 0.47 0.51
1.24 1.24 1.22 1.22 1.19 1.16 1.02 0.84 0.85 0.87 0.68 0.79 0.76 0.73 0.82 0.84 0.68 0.72 0.78 0.64 0.61 0.51 0.52 0.47 0.39 0.47 0.47 0.43 0.37 0.33 0.30 0.29 0.32 0.33 0.30 0.28 0.26 0.28 0.30 0.31 0.36 0.38 0.43 0.48 0.53
1.22 1.22 1.20 1.17 1.15 1.10 0.97 0.87 1.05 0.98 0.68 0.66 0.73 0.68 0.72 0.74 0.64 0.69 0.70 0.65 0.58 0.53 0.51 0.44 0.46 0.51 0.46 0.42 0.38 0.36 0.32 0.33 0.30 0.32 0.31 0.28 0.23 0.25 0.29 0.32 0.34 0.39 0.43 0.48 0.50
1.20 1.19 1.17 1.15 1.02 1.00 0.92 1.04 1.01 0.92 0.51 0.50 0.53 0.56 0.62 0.68 0.56 0.71 0.74 0.63 0.54 0.50 0.53 0.48 0.51 0.49 0.48 0.42 0.43 0.33 0.40 0.36 0.33 0.29 0.24 0.32 0.17 0.25 0.29 0.30 0.33 0.36 0.40 0.44 0.50
1.16 1.14 1.11 1.07 0.95 0.89 0.96 1.04 1.00 0.82 0.30 0.49 0.47 0.59 0.56 0.53 0.50 0.51 0.68 0.63 0.52 0.51 0.51 0.45 0.45 0.45 0.43 0.45 0.49 0.40 0.44 0.38 0.35 0.32 0.30 0.29 0.25 0.22 0.28 0.29 0.33 0.37 0.43 0.47 0.51
1.09 1.08 1.07 0.99 0.96 0.95 1.00 0.98 0.86 0.49 0.30 0.44 0.45 0.43 0.45 0.47 0.45 0.50 0.51 0.58 0.58 0.51 0.52 0.49 0.55 0.50 0.48 0.51 0.51 0.46 0.41 0.40 0.39 0.35 0.24 0.29 0.28 0.18 0.26 0.29 0.33 0.38 0.43 0.47 0.50
0.99 0.99 0.92 0.87 0.73 0.95 0.95 0.79 0.47 0.35 0.46 0.39 0.40 0.40 0.38 0.38 0.39 0.43 0.42 0.43 0.40 0.38 0.38 0.45 0.45 0.50 0.50 0.43 0.45 0.44 0.39 0.30 0.28 0.27 0.23 0.31 0.29 0.25 0.31 0.35 0.38 0.39 0.41 0.45 0.49
0.98 0.93 0.87 0.78 0.80 0.87 0.79 0.55 0.34 0.37 0.38 0.43 0.41 0.40 0.35 0.38 0.37 0.40 0.38 0.37 0.43 0.41 0.35 0.32 0.29 0.39 0.47 0.45 0.43 0.41 0.39 0.32 0.26 0.26 0.26 0.32 0.24 0.27 0.41 0.46 0.46 0.45 0.45 0.47 0.48
0.94 0.86 0.81 0.80 0.77 0.77 0.58 0.34 0.32 0.38 0.38 0.36 0.38 0.34 0.34 0.38 0.35 0.34 0.36 0.37 0.38 0.41 0.34 0.31 0.28 0.34 0.35 0.37 0.38 0.35 0.31 0.37 0.32 0.32 0.28 0.27 0.29 0.35 0.41 0.42 0.44 0.45 0.47 0.47 0.50
0.83 0.76 0.72 0.88 0.84 0.70 0.47 0.33 0.36 0.42 0.38 0.38 0.31 0.34 0.30 0.32 0.35 0.35 0.34 0.40 0.39 0.40 0.40 0.33 0.28 0.34 0.36 0.37 0.35 0.32 0.34 0.28 0.30 0.22 0.21 0.23 0.25 0.26 0.34 0.37 0.42 0.44 0.46 0.50 0.55
0.77 0.60 0.75 0.91 0.81 0.57 0.37 0.36 0.38 0.43 0.42 0.37 0.34 0.32 0.31 0.29 0.32 0.33 0.37 0.42 0.45 0.44 0.43 0.36 0.31 0.31 0.37 0.34 0.33 0.33 0.30 0.30 0.31 0.27 0.21 0.20 0.23 0.35 0.36 0.43 0.41 0.45 0.48 0.51 0.54
0.63 0.46 0.73 0.85 0.48 0.48 0.39 0.41 0.42 0.36 0.40 0.39 0.38 0.35 0.33 0.33 0.29 0.29 0.33 0.38 0.45 0.48 0.42 0.47 0.38 0.29 0.32 0.41 0.43 0.41 0.37 0.36 0.28 0.26 0.29 0.27 0.25 0.40 0.44 0.49 0.46 0.47 0.53 0.54 0.58
0.49 0.50 0.71 0.70 0.37 0.39 0.44 0.42 0.42 0.37 0.36 0.34 0.34 0.37 0.37 0.31 0.30 0.35 0.35 0.42 0.45 0.44 0.44 0.46 0.41 0.31 0.32 0.38 0.42 0.39 0.41 0.41 0.39 0.36 0.30 0.27 0.29 0.45 0.45 0.48 0.50 0.48 0.50 0.50 0.52
0.45 0.33 0.48 0.53 0.50 0.42 0.38 0.38 0.36 0.41 0.35 0.38 0.35 0.36 0.35 0.36 0.37 0.32 0.35 0.42 0.46 0.44 0.47 0.46 0.40 0.36 0.29 0.34 0.39 0.35 0.39 0.42 0.39 0.31 0.31 0.32 0.34 0.40 0.44 0.48 0.51 0.49 0.49 0.49 0.48
0.45 0.35 0.40 0.32 0.38 0.40 0.42 0.38 0.34 0.32 0.39 0.38 0.34 0.32 0.31 0.27 0.28 0.31 0.37 0.40 0.41 0.43 0.43 0.41 0.31 0.34 0.36 0.39 0.39 0.36 0.35 0.37 0.34 0.35 0.29 0.31 0.32 0.36 0.39 0.44 0.48 0.46 0.45 0.46 0.46
0.29 0.32 0.40 0.36 0.36 0.36 0.37 0.35 0.35 0.36 0.37 0.34 0.32 0.33 0.33 0.28 0.28 0.25 0.29 0.31 0.27 0.33 0.33 0.38 0.27 0.30 0.27 0.30 0.30 0.29 0.29 0.32 0.32 0.32 0.33 0.33 0.29 0.34 0.37 0.40 0.40 0.39 0.38 0.37 0.37
0.34 0.39 0.33 0.32 0.33 0.31 0.31 0.32 0.34 0.39 0.41 0.42 0.39 0.37 0.34 0.34 0.38 0.36 0.33 0.31 0.29 0.28 0.30 0.29 0.27 0.26 0.20 0.25 0.26 0.22 0.24 0.26 0.26 0.29 0.29 0.25 0.25 0.31 0.31 0.33 0.34 0.33 0.32 0.33 0.35

GFSSW_prec_pwat_156.txt.gz
Precipitable_Water
0.90 0.90 0.93 0.96 0.96 0.95 0.90 0.86 0.82 0.81 0.77 0.74 0.71 0.67 0.64 0.61 0.59 0.54 0.34 0.40 0.49 0.50 0.45 0.34 0.29 0.30 0.35 0.32 0.31 0.31 0.21 0.19 0.21 0.22 0.27 0.36 0.36 0.47 0.69 0.60 0.65 0.72 0.73 0.93 1.08
0.86 0.86 0.90 0.92 0.93 0.94 0.89 0.87 0.84 0.81 0.78 0.75 0.71 0.67 0.65 0.64 0.55 0.44 0.48 0.57 0.56 0.48 0.36 0.34 0.28 0.28 0.28 0.31 0.31 0.26 0.21 0.21 0.27 0.28 0.32 0.32 0.39 0.44 0.50 0.52 0.55 0.67 0.82 0.97 1.03
0.83 0.82 0.85 0.89 0.88 0.91 0.90 0.87 0.83 0.81 0.81 0.78 0.75 0.69 0.67 0.67 0.46 0.44 0.61 0.65 0.57 0.52 0.43 0.38 0.35 0.31 0.27 0.30 0.32 0.29 0.22 0.28 0.27 0.29 0.31 0.33 0.37 0.46 0.45 0.46 0.56 0.60 0.71 0.84 0.92
0.81 0.81 0.82 0.87 0.87 0.91 0.92 0.91 0.85 0.82 0.82 0.82 0.81 0.73 0.75 0.62 0.36 0.60 0.71 0.66 0.59 0.58 0.49 0.40 0.36 0.31 0.28 0.27 0.33 0.27 0.30 0.30 0.30 0.31 0.31 0.33 0.38 0.40 0.46 0.50 0.62 0.66 0.76 0.85 0.85
0.80 0.81 0.84 0.89 0.91 0.95 0.96 0.94 0.90 0.85 0.84 0.83 0.82 0.77 0.72 0.55 0.52 0.68 0.70 0.66 0.65 0.59 0.50 0.42 0.36 0.33 0.28 0.32 0.33 0.30 0.31 0.33 0.34 0.34 0.34 0.35 0.35 0.38 0.40 0.46 0.51 0.61 0.72 0.78 0.84
0.89 0.87 0.88 0.94 0.99 1.00 0.95 0.94 0.93 0.93 0.90 0.86 0.86 0.84 0.68 0.48 0.74 0.76 0.78 0.76 0.71 0.62 0.50 0.48 0.40 0.39 0.33 0.30 0.30 0.36 0.34 0.34 0.34 0.34 0.36 0.33 0.34 0.36 0.38 0.47 0.51 0.56 0.61 0.71 0.75
1.05 1.05 1.03 1.04 1.03 1.02 0.99 0.95 0.96 0.97 0.95 0.93 0.92 0.86 0.71 0.61 0.84 0.81 0.78 0.76 0.74 0.67 0.57 0.53 0.46 0.39 0.38 0.31 0.36 0.32 0.29 0.30 0.32 0.33 0.33 0.35 0.29 0.30 0.36 0.42 0.44 0.48 0.53 0.64 0.72
1.17 1.16 1.17 1.16 1.14 1.08 1.03 1.00 1.01 1.01 1.01 1.00 0.97 0.89 0.71 0.96 0.90 0.85 0.83 0.74 0.75 0.71 0.65 0.61 0.54 0.43 0.41 0.45 0.39 0.32 0.31 0.26 0.30 0.31 0.32 0.31 0.23 0.29 0.34 0.36 0.36 0.42 0.49 0.55 0.61
1.28 1.27 1.28 1.26 1.20 1.16 1.11 1.09 1.12 1.12 1.13 1.09 1.00 0.92 0.74 0.96 0.82 0.77 0.72 0.63 0.62 0.66 0.66 0.61 0.57 0.49 0.51 0.41 0.36 0.36 0.31 0.32 0.32 0.35 0.31 0.28 0.24 0.28 0.34 0.34 0.33 0.40 0.46 0.52 0.57
1.42 1.42 1.41 1.35 1.29 1.24 1.21 1.18 1.19 1.14 1.11 1.08 0.99 0.83 0.84 0.77 0.79 0.80 0.80 0.73 0.63 0.58 0.54 0.52 0.51 0.46 0.45 0.39 0.29 0.32 0.30 0.32 0.30 0.31 0.32 0.27 0.26 0.29 0.32 0.32 0.32 0.34 0.43 0.48 0.52
1.36 1.37 1.38 1.35 1.36 1.31 1.18 1.09 0.96 0.89 0.90 0.83 0.81 0.77 0.74 0.76 0.76 0.70 0.71 0.65 0.63 0.57 0.48 0.50 0.42 0.40 0.42 0.41 0.40 0.35 0.31 0.29 0.32 0.33 0.32 0.29 0.29 0.32 0.34 0.35 0.34 0.36 0.39 0.46 0.50
1.28 1.31 1.31 1.30 1.26 1.17 1.05 0.87 0.89 0.94 0.71 0.82 0.79 0.78 0.86 0.84 0.71 0.76 0.77 0.62 0.60 0.54 0.55 0.49 0.41 0.51 0.51 0.46 0.42 0.38 0.33 0.32 0.35 0.36 0.34 0.31 0.29 0.33 0.34 0.33 0.32 0.36 0.41 0.44 0.52
1.21 1.21 1.21 1.22 1.19 1.11 0.95 0.90 1.04 0.99 0.69 0.69 0.75 0.69 0.72 0.74 0.67 0.70 0.70 0.68 0.61 0.56 0.54 0.47 0.52 0.56 0.50 0.44 0.41 0.39 0.36 0.35 0.33 0.37 0.35 0.31 0.27 0.31 0.33 0.34 0.37 0.37 0.40 0.46 0.50
1.20 1.20 1.20 1.17 1.04 1.03 0.94 1.02 1.05 0.97 0.53 0.52 0.56 0.60 0.67 0.69 0.58 0.74 0.76 0.67 0.60 0.53 0.55 0.50 0.57 0.55 0.51 0.46 0.46 0.38 0.44 0.41 0.37 0.33 0.27 0.33 0.19 0.29 0.30 0.30 0.34 0.36 0.39 0.44 0.50
1.17 1.17 1.16 1.13 1.01 0.91 0.98 1.07 1.07 0.86 0.33 0.51 0.50 0.64 0.58 0.55 0.53 0.54 0.71 0.67 0.55 0.54 0.54 0.47 0.47 0.48 0.47 0.48 0.51 0.44 0.47 0.43 0.40 0.36 0.33 0.32 0.27 0.27 0.31 0.30 0.33 0.37 0.40 0.46 0.51
1.14 1.13 1.11 1.04 1.01 1.00 1.05 1.04 0.90 0.52 0.31 0.44 0.47 0.46 0.48 0.49 0.47 0.52 0.53 0.62 0.60 0.53 0.53 0.51 0.57 0.51 0.50 0.51 0.51 0.51 0.46 0.44 0.43 0.39 0.28 0.34 0.31 0.20 0.31 0.34 0.35 0.39 0.43 0.48 0.53
1.10 1.08 0.99 0.98 0.84 1.01 1.02 0.83 0.50 0.37 0.46 0.40 0.41 0.43 0.42 0.40 0.40 0.42 0.44 0.44 0.40 0.37 0.38 0.45 0.46 0.51 0.50 0.44 0.49 0.48 0.41 0.34 0.30 0.29 0.25 0.36 0.30 0.28 0.36 0.38 0.40 0.41 0.44 0.48 0.54
1.05 1.02 0.97 0.87 0.88 0.94 0.84 0.59 0.36 0.39 0.42 0.44 0.43 0.43 0.37 0.39 0.38 0.38 0.37 0.36 0.42 0.41 0.36 0.34 0.32 0.44 0.49 0.44 0.42 0.42 0.41 0.35 0.30 0.30 0.30 0.37 0.24 0.31 0.44 0.46 0.47 0.48 0.49 0.52 0.54
1.03 0.94 0.87 0.85 0.86 0.85 0.62 0.40 0.38 0.43 0.43 0.39 0.41 0.36 0.36 0.38 0.36 0.36 0.37 0.34 0.36 0.40 0.33 0.31 0.31 0.39 0.41 0.46 0.47 0.43 0.38 0.43 0.36 0.37 0.32 0.32 0.32 0.36 0.44 0.44 0.46 0.48 0.50 0.51 0.53
0.83 0.74 0.75 0.88 0.82 0.72 0.48 0.37 0.41 0.43 0.42 0.41 0.31 0.34 0.31 0.32 0.35 0.36 0.34 0.39 0.38 0.40 0.40 0.34 0.27 0.34 0.36 0.37 0.37 0.40 0.41 0.35 0.34 0.25 0.25 0.26 0.29 0.30 0.37 0.41 0.49 0.48 0.50 0.54 0.59
0.70 0.56 0.70 0.89 0.80 0.59 0.37 0.36 0.40 0.42 0.42 0.37 0.34 0.33 0.33 0.31 0.34 0.35 0.38 0.41 0.43 0.42 0.42 0.36 0.31 0.32 0.36 0.33 0.31 0.33 0.31 0.32 0.34 0.31 0.25 0.23 0.26 0.41 0.41 0.47 0.47 0.49 0.52 0.53 0.56
0.60 0.45 0.75 0.84 0.49 0.49 0.38 0.43 0.46 0.41 0.44 0.41 0.40 0.37 0.35 0.35 0.31 0.32 0.35 0.39 0.46 0.48 0.40 0.43 0.37 0.29 0.32 0.40 0.41 0.39 0.35 0.34 0.28 0.27 0.31 0.29 0.27 0.46 0.48 0.47 0.48 0.48 0.50 0.51 0.52
0.50 0.51 0.70 0.69 0.37 0.39 0.45 0.45 0.47 0.42 0.42 0.41 0.37 0.36 0.35 0.32 0.29 0.33 0.36 0.43 0.44 0.44 0.42 0.44 0.39 0.30 0.33 0.37 0.42 0.39 0.41 0.42 0.40 0.36 0.30 0.27 0.30 0.45 0.47 0.49 0.52 0.51 0.52 0.51 0.51
0.43 0.34 0.47 0.53 0.50 0.43 0.40 0.40 0.40 0.48 0.45 0.43 0.38 0.38 0.33 0.31 0.33 0.32 0.36 0.40 0.43 0.43 0.45 0.47 0.41 0.37 0.30 0.35 0.40 0.36 0.39 0.42 0.40 0.32 0.32 0.32 0.34 0.40 0.45 0.49 0.51 0.53 0.53 0.54 0.52
0.41 0.33 0.40 0.33 0.37 0.38 0.41 0.40 0.37 0.38 0.44 0.43 0.37 0.35 0.32 0.29 0.32 0.32 0.37 0.40 0.42 0.46 0.43 0.40 0.31 0.34 0.36 0.38 0.38 0.36 0.34 0.37 0.35 0.36 0.30 0.32 0.33 0.36 0.38 0.41 0.44 0.47 0.49 0.49 0.50
0.34 0.35 0.41 0.37 0.38 0.36 0.36 0.34 0.34 0.37 0.40 0.35 0.34 0.35 0.35 0.30 0.30 0.29 0.35 0.36 0.33 0.37 0.35 0.40 0.28 0.30 0.27 0.31 0.32 0.30 0.31 0.31 0.29 0.31 0.32 0.32 0.28 0.36 0.35 0.40 0.38 0.39 0.41 0.41 0.40
0.39 0.41 0.34 0.32 0.34 0.31 0.30 0.31 0.31 0.36 0.38 0.44 0.42 0.38 0.35 0.33 0.39 0.39 0.43 0.40 0.36 0.31 0.30 0.31 0.29 0.27 0.19 0.24 0.26 0.21 0.22 0.24 0.25 0.29 0.29 0.24 0.24 0.29 0.30 0.33 0.32 0.35 0.36 0.34 0.34

GFSSW_prec_pwat_159.txt.gz
Precipitable_Water
0.87 0.88 0.90 0.91 0.94 0.93 0.91 0.87 0.84 0.81 0.79 0.76 0.71 0.65 0.60 0.60 0.58 0.55 0.46 0.41 0.51 0.53 0.47 0.42 0.36 0.30 0.31 0.33 0.34 0.32 0.21 0.19 0.20 0.23 0.27 0.39 0.35 0.42 0.59 0.74 0.81 0.84 0.88 1.15 1.07
0.86 0.86 0.87 0.90 0.91 0.89 0.91 0.86 0.84 0.81 0.78 0.75 0.73 0.69 0.63 0.62 0.49 0.41 0.50 0.47 0.55 0.49 0.43 0.37 0.34 0.33 0.28 0.33 0.34 0.28 0.23 0.23 0.28 0.30 0.30 0.37 0.36 0.42 0.47 0.63 0.67 0.72 0.92 1.11 1.08
0.85 0.85 0.83 0.84 0.86 0.85 0.87 0.86 0.84 0.81 0.79 0.78 0.75 0.73 0.68 0.64 0.40 0.51 0.58 0.62 0.63 0.56 0.53 0.45 0.41 0.36 0.29 0.30 0.33 0.31 0.24 0.27 0.30 0.28 0.28 0.28 0.34 0.39 0.48 0.46 0.60 0.66 0.83 0.93 1.01
0.87 0.88 0.84 0.81 0.84 0.83 0.83 0.85 0.83 0.81 0.79 0.78 0.79 0.77 0.70 0.58 0.31 0.63 0.66 0.66 0.61 0.63 0.55 0.46 0.38 0.33 0.31 0.30 0.35 0.30 0.30 0.30 0.30 0.31 0.28 0.27 0.33 0.39 0.45 0.47 0.62 0.68 0.87 0.93 0.92
0.85 0.87 0.84 0.80 0.81 0.83 0.86 0.87 0.84 0.85 0.84 0.82 0.82 0.80 0.69 0.48 0.47 0.67 0.67 0.66 0.69 0.64 0.56 0.47 0.38 0.35 0.30 0.31 0.34 0.32 0.32 0.33 0.35 0.33 0.33 0.31 0.31 0.34 0.41 0.53 0.61 0.73 0.89 0.85 0.90
0.83 0.86 0.87 0.84 0.85 0.89 0.92 0.92 0.89 0.89 0.87 0.88 0.87 0.85 0.69 0.44 0.73 0.74 0.71 0.75 0.75 0.69 0.61 0.52 0.44 0.41 0.34 0.34 0.33 0.35 0.35 0.32 0.33 0.32 0.33 0.31 0.30 0.33 0.39 0.47 0.53 0.55 0.71 0.78 0.86
0.90 0.92 0.93 0.92 0.92 0.96 0.98 1.00 0.97 0.95 0.93 0.91 0.92 0.85 0.68 0.53 0.76 0.84 0.80 0.75 0.78 0.73 0.63 0.59 0.53 0.43 0.41 0.37 0.38 0.36 0.28 0.29 0.29 0.31 0.31 0.34 0.30 0.31 0.38 0.44 0.47 0.54 0.63 0.71 0.82
1.08 1.10 1.08 1.07 1.07 1.06 1.05 1.04 1.04 1.01 1.01 1.00 0.96 0.87 0.64 0.84 0.97 0.96 0.92 0.82 0.86 0.79 0.71 0.68 0.59 0.52 0.44 0.44 0.41 0.34 0.33 0.27 0.30 0.27 0.29 0.31 0.28 0.34 0.37 0.37 0.40 0.48 0.53 0.59 0.71
1.20 1.19 1.21 1.20 1.17 1.17 1.13 1.08 1.05 1.06 1.06 1.07 0.94 0.86 0.69 1.02 0.87 0.89 0.90 0.78 0.68 0.68 0.69 0.65 0.60 0.54 0.51 0.42 0.37 0.37 0.30 0.32 0.32 0.34 0.32 0.34 0.32 0.32 0.34 0.35 0.35 0.40 0.45 0.52 0.63
1.32 1.32 1.29 1.29 1.30 1.25 1.19 1.16 1.14 1.12 1.07 1.02 0.97 0.82 0.86 0.79 0.91 0.85 0.80 0.78 0.67 0.64 0.57 0.55 0.54 0.49 0.48 0.42 0.31 0.35 0.36 0.37 0.34 0.37 0.34 0.30 0.29 0.33 0.33 0.34 0.37 0.39 0.39 0.46 0.59
1.37 1.38 1.37 1.35 1.31 1.30 1.27 1.17 1.01 0.90 0.94 0.79 0.79 0.79 0.81 0.85 0.87 0.80 0.84 0.73 0.66 0.59 0.49 0.51 0.44 0.39 0.43 0.45 0.43 0.40 0.38 0.35 0.35 0.37 0.32 0.30 0.31 0.33 0.35 0.35 0.37 0.38 0.37 0.41 0.54
1.31 1.30 1.32 1.32 1.31 1.32 1.26 1.03 0.98 1.00 0.76 0.91 0.89 0.86 0.92 0.88 0.72 0.71 0.72 0.60 0.58 0.50 0.54 0.49 0.40 0.49 0.51 0.49 0.46 0.42 0.39 0.37 0.40 0.41 0.37 0.33 0.31 0.35 0.35 0.34 0.35 0.39 0.41 0.43 0.50
1.26 1.27 1.29 1.27 1.26 1.18 1.07 1.00 1.11 1.07 0.76 0.77 0.82 0.76 0.78 0.81 0.70 0.72 0.76 0.65 0.59 0.54 0.54 0.47 0.49 0.58 0.53 0.49 0.45 0.42 0.40 0.39 0.38 0.42 0.41 0.36 0.30 0.33 0.37 0.38 0.37 0.36 0.40 0.44 0.50
1.21 1.17 1.19 1.18 1.06 1.09 1.01 1.01 1.08 1.07 0.61 0.58 0.63 0.67 0.73 0.74 0.59 0.75 0.81 0.71 0.60 0.53 0.58 0.55 0.62 0.57 0.52 0.50 0.51 0.40 0.50 0.46 0.41 0.36 0.28 0.39 0.23 0.32 0.35 0.35 0.37 0.36 0.39 0.41 0.47
1.19 1.20 1.19 1.18 1.04 0.95 1.01 1.10 1.09 0.93 0.37 0.58 0.56 0.69 0.63 0.60 0.57 0.56 0.75 0.71 0.58 0.56 0.56 0.49 0.55 0.52 0.49 0.50 0.57 0.47 0.56 0.48 0.44 0.38 0.36 0.35 0.32 0.28 0.37 0.34 0.37 0.36 0.39 0.43 0.48
1.16 1.16 1.16 1.09 1.05 1.03 1.10 1.08 0.94 0.55 0.34 0.48 0.49 0.49 0.50 0.56 0.56 0.52 0.55 0.68 0.68 0.59 0.57 0.52 0.62 0.55 0.51 0.55 0.55 0.57 0.52 0.48 0.46 0.41 0.29 0.34 0.36 0.23 0.37 0.39 0.40 0.41 0.42 0.46 0.50
1.13 1.12 1.09 1.09 0.90 1.11 1.10 0.91 0.51 0.39 0.51 0.46 0.44 0.45 0.46 0.45 0.46 0.44 0.45 0.47 0.45 0.40 0.41 0.47 0.49 0.54 0.54 0.45 0.51 0.49 0.45 0.36 0.33 0.32 0.25 0.37 0.34 0.33 0.43 0.44 0.45 0.45 0.46 0.49 0.54
1.07 1.06 1.04 1.02 1.02 1.04 0.93 0.63 0.38 0.44 0.47 0.51 0.46 0.44 0.40 0.43 0.41 0.41 0.39 0.40 0.46 0.44 0.39 0.36 0.36 0.47 0.53 0.46 0.42 0.43 0.44 0.36 0.30 0.30 0.31 0.40 0.31 0.38 0.50 0.49 0.49 0.52 0.53 0.55 0.57
1.05 0.96 0.91 0.95 0.98 0.97 0.69 0.43 0.39 0.45 0.50 0.48 0.46 0.40 0.39 0.41 0.39 0.37 0.36 0.37 0.41 0.44 0.36 0.35 0.34 0.41 0.48 0.52 0.48 0.42 0.38 0.47 0.39 0.39 0.35 0.34 0.39 0.48 0.52 0.54 0.55 0.53 0.53 0.54 0.58
0.87 0.81 0.79 0.96 0.93 0.82 0.56 0.42 0.44 0.49 0.48 0.45 0.37 0.39 0.33 0.37 0.38 0.37 0.36 0.40 0.41 0.42 0.44 0.40 0.31 0.39 0.38 0.37 0.43 0.43 0.45 0.38 0.40 0.29 0.27 0.29 0.33 0.36 0.48 0.50 0.58 0.54 0.54 0.56 0.58
0.77 0.63 0.79 0.93 0.81 0.60 0.35 0.37 0.42 0.54 0.49 0.40 0.38 0.36 0.36 0.35 0.35 0.35 0.39 0.46 0.45 0.44 0.46 0.41 0.37 0.35 0.37 0.34 0.31 0.32 0.34 0.35 0.38 0.38 0.28 0.25 0.29 0.49 0.52 0.56 0.55 0.56 0.56 0.56 0.59
0.64 0.48 0.78 0.84 0.48 0.47 0.38 0.39 0.46 0.41 0.50 0.44 0.41 0.38 0.36 0.37 0.34 0.33 0.34 0.42 0.49 0.50 0.40 0.44 0.38 0.32 0.34 0.42 0.42 0.39 0.36 0.34 0.28 0.26 0.31 0.31 0.28 0.52 0.51 0.53 0.54 0.54 0.53 0.53 0.54
0.53 0.53 0.74 0.71 0.36 0.33 0.40 0.42 0.47 0.42 0.39 0.38 0.37 0.38 0.40 0.36 0.33 0.35 0.36 0.45 0.46 0.45 0.43 0.47 0.37 0.29 0.31 0.41 0.41 0.37 0.42 0.42 0.40 0.37 0.29 0.28 0.32 0.50 0.49 0.50 0.53 0.52 0.54 0.54 0.54
0.49 0.38 0.51 0.54 0.49 0.41 0.41 0.41 0.41 0.50 0.44 0.44 0.42 0.43 0.38 0.34 0.36 0.32 0.35 0.40 0.41 0.41 0.45 0.47 0.40 0.36 0.29 0.36 0.43 0.39 0.42 0.43 0.40 0.33 0.32 0.32 0.36 0.47 0.52 0.47 0.49 0.50 0.55 0.55 0.56
0.44 0.36 0.42 0.33 0.38 0.41 0.42 0.40 0.37 0.39 0.49 0.48 0.42 0.40 0.38 0.34 0.32 0.33 0.34 0.40 0.40 0.41 0.39 0.40 0.31 0.35 0.37 0.41 0.41 0.39 0.37 0.37 0.36 0.37 0.31 0.32 0.34 0.35 0.42 0.42 0.41 0.43 0.44 0.46 0.48
0.37 0.35 0.40 0.36 0.37 0.37 0.37 0.36 0.35 0.38 0.40 0.39 0.38 0.39 0.40 0.35 0.35 0.31 0.36 0.35 0.35 0.40 0.37 0.40 0.29 0.31 0.29 0.33 0.32 0.31 0.31 0.33 0.31 0.32 0.35 0.34 0.30 0.35 0.37 0.38 0.34 0.36 0.39 0.38 0.41
0.49 0.49 0.41 0.36 0.33 0.31 0.31 0.33 0.34 0.37 0.40 0.41 0.43 0.40 0.39 0.42 0.48 0.48 0.50 0.46 0.47 0.40 0.37 0.37 0.32 0.28 0.24 0.28 0.29 0.25 0.22 0.26 0.25 0.28 0.29 0.26 0.28 0.32 0.32 0.32 0.34 0.34 0.36 0.38 0.39